Kinston, NC

4:25 AM EST on February 07, 2016 (GMT -0500)
Kinston Regional Jetport / Stallings Field

Weather History for KISO - May, 2013

Change the Weather History Date:

Wednesday, May 15, 2013

  Actual Average Record
Temperature  
Mean Temperature 71 °F -  
Max Temperature 87 °F - - ()
Min Temperature 55 °F - - ()
Cooling Degree Days 6    
Growing Degree Days 21 (Base 50)    
Moisture  
Dew Point 53 °F    
Average Humidity 61    
Maximum Humidity 79    
Minimum Humidity 33    
Precipitation  
Precipitation 0.00 in - - ()
Sea Level Pressure  
Sea Level Pressure 30.05 in    
Wind  
Wind Speed 8 mph (SSW)    
Max Wind Speed 15 mph    
Max Gust Speed 21 mph    
Visibility 10 miles    
Events      
T = Trace of Precipitation, MM = Missing Value Source: NWS Daily Summary

Daily Weather History Graph

Daily Weather History Graph

Search for Another Location

Airport or City:

Trip Planner

Search our weather history database for the weather conditions in past years. The results will help you decide how hot, cold, wet, or windy it might be!

Date:

Astronomy

May. 15, 2013 Rise Set
Actual Time 6:06 AM EDT 8:08 PM EDT
Civil Twilight 5:37 AM EDT 8:36 PM EDT
Nautical Twilight 5:03 AM EDT 9:10 PM EDT
Astronomical Twilight 4:26 AM EDT 9:47 PM EDT
Moon 10:37 AM EDT (5/15) No Moon Set
Length of Visible Light 14h 58m
Length of Day
14h 02m
Waxing Crescent, 26% of the Moon is Illuminated
May 15
Waxing Crescent
May 18
First Quarter
May 25
Full
May 31
Last Quarter
Jun 8
New

Hourly Weather History & Observations

Time (EDT) Temp. Heat Index Dew Point Humidity Pressure Visibility Wind Dir Wind Speed Gust Speed Precip Events Conditions
12:15 AM 57.7 °F - 45.0 °F 62% 30.14 in 10.0 mi South 5.8 mph - N/A   Clear
12:35 AM 58.1 °F - 45.0 °F 62% 30.13 in 10.0 mi South 6.9 mph - N/A   Clear
12:55 AM 57.2 °F - 45.0 °F 64% 30.14 in 10.0 mi South 5.8 mph - N/A   Clear
1:15 AM 57.2 °F - 45.3 °F 65% 30.13 in 10.0 mi SSW 8.1 mph - N/A   Clear
1:35 AM 57.2 °F - 45.5 °F 65% 30.13 in 10.0 mi South 6.9 mph - N/A   Clear
1:55 AM 57.2 °F - 46.0 °F 66% 30.13 in 10.0 mi South 5.8 mph - N/A   Clear
2:15 AM 57.9 °F - 46.8 °F 66% 30.13 in 10.0 mi SSW 6.9 mph - N/A   Clear
2:35 AM 57.6 °F - 47.3 °F 69% 30.13 in 10.0 mi SSW 6.9 mph - N/A   Clear
2:55 AM 57.2 °F - 47.3 °F 69% 30.13 in 10.0 mi South 5.8 mph - N/A   Clear
3:15 AM 57.2 °F - 47.8 °F 71% 30.13 in 10.0 mi South 5.8 mph - N/A   Clear
3:35 AM 56.7 °F - 48.0 °F 73% 30.12 in 10.0 mi South 6.9 mph - N/A   Clear
3:55 AM 55.9 °F - 48.2 °F 75% 30.11 in 10.0 mi SSW 6.9 mph - N/A   Clear
4:15 AM 55.9 °F - 48.6 °F 76% 30.11 in 10.0 mi SSW 5.8 mph - N/A   Clear
4:35 AM 56.3 °F - 49.1 °F 77% 30.12 in 10.0 mi South 6.9 mph - N/A   Clear
4:55 AM 56.3 °F - 49.1 °F 77% 30.11 in 10.0 mi South 8.1 mph - N/A   Clear
5:15 AM 56.5 °F - 49.5 °F 77% 30.10 in 10.0 mi SSW 8.1 mph - N/A   Clear
5:35 AM 56.7 °F - 50.0 °F 78% 30.11 in 10.0 mi SSW 6.9 mph - N/A   Clear
5:55 AM 56.8 °F - 50.4 °F 79% 30.11 in 10.0 mi SSW 8.1 mph - N/A   Clear
6:15 AM 57.4 °F - 50.9 °F 79% 30.11 in 10.0 mi SSW 9.2 mph - N/A   Clear
6:35 AM 58.3 °F - 50.9 °F 76% 30.11 in 10.0 mi SSW 9.2 mph - N/A   Clear
6:55 AM 60.1 °F - 51.3 °F 73% 30.10 in 10.0 mi SSW 12.7 mph 18.4 mph N/A   Scattered Clouds
6:56 AM 60.8 °F - 51.8 °F 72% 30.11 in 10.0 mi SSW 12.7 mph 18.4 mph N/A   Scattered Clouds
7:56 AM 64.4 °F - 48.2 °F 56% 30.10 in 10.0 mi SSW 15.0 mph 20.7 mph N/A   Clear
8:56 AM 68.0 °F - 50.0 °F 52% 30.09 in 10.0 mi SW 12.7 mph 17.3 mph N/A   Clear
9:56 AM 71.6 °F - 50.0 °F 46% 30.08 in 10.0 mi WSW 12.7 mph - N/A   Clear
10:56 AM 75.2 °F - 51.8 °F 44% 30.07 in 10.0 mi SW 10.4 mph - N/A   Clear
11:56 AM 78.8 °F - 53.6 °F 42% 30.05 in 10.0 mi SW 9.2 mph - N/A   Clear
12:56 PM 82.4 °F 81.4 °F 53.6 °F 37% 30.04 in 10.0 mi WSW 11.5 mph - N/A   Clear
1:56 PM 84.2 °F 82.8 °F 53.6 °F 35% 30.01 in 10.0 mi SW 10.4 mph - N/A   Clear
3:56 PM 87.8 °F 86.1 °F 55.4 °F 33% 29.96 in 10.0 mi WSW 10.4 mph 18.4 mph N/A   Clear
4:56 PM 87.8 °F 86.1 °F 55.4 °F 33% 29.94 in 10.0 mi SW 11.5 mph - N/A   Clear
5:56 PM 87.8 °F 86.1 °F 55.4 °F 33% 29.93 in 10.0 mi WSW 11.5 mph 16.1 mph N/A   Clear
6:56 PM 86.0 °F 84.5 °F 55.4 °F 35% 29.92 in 10.0 mi SW 11.5 mph 16.1 mph N/A   Clear
7:56 PM 80.6 °F 80.8 °F 57.2 °F 45% 29.93 in 10.0 mi SSW 6.9 mph - N/A   Clear
8:56 PM 77.0 °F - 59.0 °F 54% 29.93 in 10.0 mi SSW 9.2 mph - N/A   Clear
9:15 PM 77.9 °F - 59.5 °F 53% 29.94 in 10.0 mi SSW 11.5 mph - N/A   Clear
9:35 PM 77.0 °F - 61.0 °F 58% 29.94 in 10.0 mi SSW 13.8 mph 17.3 mph N/A   Clear
9:55 PM 76.5 °F - 61.0 °F 59% 29.95 in 10.0 mi SSW 10.4 mph - N/A   Clear
9:56 PM 77.0 °F - 60.8 °F 57% 29.95 in 10.0 mi SSW 10.4 mph - N/A   Clear
10:15 PM 75.4 °F - 60.8 °F 60% 29.96 in 10.0 mi SSW 8.1 mph - N/A   Clear
10:35 PM 74.5 °F - 60.8 °F 62% 29.96 in 10.0 mi SSW 9.2 mph - N/A   Clear
10:55 PM 73.6 °F - 60.8 °F 64% 29.95 in 10.0 mi SSW 9.2 mph - N/A   Clear
11:15 PM 72.5 °F - 60.8 °F 67% 29.95 in 10.0 mi SSW 10.4 mph - N/A   Clear
11:35 PM 71.6 °F - 60.8 °F 69% 29.95 in 10.0 mi SSW 10.4 mph - N/A   Clear
11:55 PM 71.1 °F - 60.8 °F 70% 29.95 in 10.0 mi SSW 9.2 mph - N/A   Clear